User: anonymous   Login
Location: ??????
(42.0089°N, 44.3281°E)
Time: 04:47:47
(UTC+00:00)
Language:

Cosmos 405 Rocket - Orbit

View from above orbital plane
View from above orbital plane
View from above satellite
View from above satellite

Ground track
Ground track

The orbit data is extracted from the following two-line orbital elements,

1 05118U 71028B   22021.55451858  .00002413  00000-0  12257-3 0  9991
2 05118  81.2546  26.3154 0047098  51.9507 308.5957 15.15502284758098
Epoch (UTC): 21 January 2022 13:18:30
Eccentricity: 0.0047098
inclination: 81.2546°
perigee height: 487 km
apogee height: 552 km
right ascension of ascending node: 26.3154°
argument of perigee: 51.9507°
revolutions per day: 15.15502284
mean anomaly at epoch: 308.5957°
orbit number at epoch: 75809

The dashed part of the orbit path shows where the satellite is in the earth's shadow,  

DLR